owner,sensor,date,latitude,longitude,vertical_datum,wind_speed,wind_to_direction,wind_speed_of_gust,qcFlag 
LOOP,urn:ioos:station:wmo:lopl1:1,2011-09-01T00:12:00Z,28.8850,-90.0250,10.0,6.3,79.0,7.7,'11111222,11111222,11111222' 
LOOP,urn:ioos:station:wmo:lopl1:1,2011-09-01T00:27:00Z,28.8850,-90.0250,10.0,10.0,64.0,11.0,'11111222,11111222,11111222' 
LOOP,urn:ioos:station:wmo:lopl1:1,2011-09-01T00:42:00Z,28.8850,-90.0250,10.0,7.5,64.0,9.3,'11111222,11111222,11111222' 
LOOP,urn:ioos:station:wmo:lopl1:1,2011-09-01T00:57:00Z,28.8850,-90.0250,10.0,6.8,75.0,8.4,'11111222,11111222,11111222' 
LOOP,urn:ioos:station:wmo:lopl1:1,2011-09-01T01:12:00Z,28.8850,-90.0250,10.0,6.2,69.0,7.4,'11111222,11111222,11111222' 
LOOP,urn:ioos:station:wmo:lopl1:1,2011-09-01T01:27:00Z,28.8850,-90.0250,10.0,6.3,69.0,7.9,'11111222,11111222,11111222' 
LOOP,urn:ioos:station:wmo:lopl1:1,2011-09-01T01:42:00Z,28.8850,-90.0250,10.0,6.8,89.0,9.3,'11111222,11111222,11111222' 
LOOP,urn:ioos:station:wmo:lopl1:1,2011-09-01T01:57:00Z,28.8850,-90.0250,10.0,7.1,88.0,7.9,'11111222,11111222,11111222' 
LOOP,urn:ioos:station:wmo:lopl1:1,2011-09-01T02:12:00Z,28.8850,-90.0250,10.0,7.0,80.0,7.7,'11111222,11111222,11111222' 
LOOP,urn:ioos:station:wmo:lopl1:1,2011-09-01T02:27:00Z,28.8850,-90.0250,10.0,8.1,99.0,9.0,'11111222,11111222,11111222' 
LOOP,urn:ioos:station:wmo:lopl1:1,2011-09-01T02:47:00Z,28.8850,-90.0250,10.0,9.1,85.0,10.3,'11111222,11111222,11111222' 
LOOP,urn:ioos:station:wmo:lopl1:1,2011-09-01T03:02:00Z,28.8850,-90.0250,10.0,8.6,99.0,11.4,'11111222,11111222,11111222' 
LOOP,urn:ioos:station:wmo:lopl1:1,2011-09-01T03:17:00Z,28.8850,-90.0250,10.0,8.7,95.0,10.0,'11111222,11111222,11111222' 
LOOP,urn:ioos:station:wmo:lopl1:1,2011-09-01T03:32:00Z,28.8850,-90.0250,10.0,8.9,92.0,9.8,'11111222,11111222,11111222' 
LOOP,urn:ioos:station:wmo:lopl1:1,2011-09-01T03:47:00Z,28.8850,-90.0250,10.0,9.1,96.0,10.8,'11111222,11111222,11111222' 
LOOP,urn:ioos:station:wmo:lopl1:1,2011-09-01T04:02:00Z,28.8850,-90.0250,10.0,9.3,88.0,10.6,'11111222,11111222,11111222' 
LOOP,urn:ioos:station:wmo:lopl1:1,2011-09-01T04:17:00Z,28.8850,-90.0250,10.0,10.9,91.0,14.5,'11111222,11111222,11111222' 
LOOP,urn:ioos:station:wmo:lopl1:1,2011-09-01T04:32:00Z,28.8850,-90.0250,10.0,10.0,85.0,11.7,'11111222,11111222,11111222' 
LOOP,urn:ioos:station:wmo:lopl1:1,2011-09-01T04:47:00Z,28.8850,-90.0250,10.0,9.0,85.0,10.4,'11111222,11111222,11111222' 
LOOP,urn:ioos:station:wmo:lopl1:1,2011-09-01T05:03:00Z,28.8850,-90.0250,10.0,10.1,80.0,10.1,'11111222,11111222,11111222' 
LOOP,urn:ioos:station:wmo:lopl1:1,2011-09-01T05:18:00Z,28.8850,-90.0250,10.0,9.0,93.0,10.1,'11111222,11111222,11111222' 
LOOP,urn:ioos:station:wmo:lopl1:1,2011-09-01T05:33:00Z,28.8850,-90.0250,10.0,9.8,86.0,11.0,'11111222,11111222,11111222' 
LOOP,urn:ioos:station:wmo:lopl1:1,2011-09-01T05:48:00Z,28.8850,-90.0250,10.0,9.8,91.0,11.6,'11111222,11111222,11111222' 
LOOP,urn:ioos:station:wmo:lopl1:1,2011-09-01T06:03:00Z,28.8850,-90.0250,10.0,10.5,102.0,11.6,'11111222,11111222,11111222' 
LOOP,urn:ioos:station:wmo:lopl1:1,2011-09-01T06:18:00Z,28.8850,-90.0250,10.0,10.9,90.0,12.4,'11111222,11111222,11111222' 
LOOP,urn:ioos:station:wmo:lopl1:1,2011-09-01T06:33:00Z,28.8850,-90.0250,10.0,10.8,91.0,11.9,'11111222,11111222,11111222' 
LOOP,urn:ioos:station:wmo:lopl1:1,2011-09-01T06:48:00Z,28.8850,-90.0250,10.0,9.5,93.0,10.7,'11111222,11111222,11111222' 
LOOP,urn:ioos:station:wmo:lopl1:1,2011-09-01T07:03:00Z,28.8850,-90.0250,10.0,9.5,89.0,10.4,'11111222,11111222,11111222' 
LOOP,urn:ioos:station:wmo:lopl1:1,2011-09-01T07:18:00Z,28.8850,-90.0250,10.0,9.0,82.0,10.4,'11111222,11111222,11111222' 
LOOP,urn:ioos:station:wmo:lopl1:1,2011-09-01T07:33:00Z,28.8850,-90.0250,10.0,8.6,75.0,10.7,'11111222,11111222,11111222' 
LOOP,urn:ioos:station:wmo:lopl1:1,2011-09-01T07:48:00Z,28.8850,-90.0250,10.0,9.8,81.0,11.7,'11111222,11111222,11111222' 
LOOP,urn:ioos:station:wmo:lopl1:1,2011-09-01T08:03:00Z,28.8850,-90.0250,10.0,9.4,83.0,11.9,'11111222,11111222,11111222' 
LOOP,urn:ioos:station:wmo:lopl1:1,2011-09-01T08:18:00Z,28.8850,-90.0250,10.0,11.4,93.0,13.2,'11111222,11111222,11111222' 
LOOP,urn:ioos:station:wmo:lopl1:1,2011-09-01T08:33:00Z,28.8850,-90.0250,10.0,13.7,81.0,15.9,'11111222,11111222,11111222' 
LOOP,urn:ioos:station:wmo:lopl1:1,2011-09-01T09:03:00Z,28.8850,-90.0250,10.0,10.6,93.0,12.3,'11111222,11111222,11111222' 
LOOP,urn:ioos:station:wmo:lopl1:1,2011-09-01T09:18:00Z,28.8850,-90.0250,10.0,10.6,91.0,11.7,'11111222,11111222,11111222' 
LOOP,urn:ioos:station:wmo:lopl1:1,2011-09-01T09:33:00Z,28.8850,-90.0250,10.0,11.8,89.0,13.3,'11111222,11111222,11111222' 
LOOP,urn:ioos:station:wmo:lopl1:1,2011-09-01T09:48:00Z,28.8850,-90.0250,10.0,11.9,89.0,13.5,'11111222,11111222,11111222' 
LOOP,urn:ioos:station:wmo:lopl1:1,2011-09-01T10:03:00Z,28.8850,-90.0250,10.0,11.5,89.0,12.6,'11111222,11111222,11111222' 
LOOP,urn:ioos:station:wmo:lopl1:1,2011-09-01T10:18:00Z,28.8850,-90.0250,10.0,10.6,82.0,12.9,'11111222,11111222,11111222' 
LOOP,urn:ioos:station:wmo:lopl1:1,2011-09-01T10:33:00Z,28.8850,-90.0250,10.0,11.2,82.0,12.5,'11111222,11111222,11111222' 
LOOP,urn:ioos:station:wmo:lopl1:1,2011-09-01T10:48:00Z,28.8850,-90.0250,10.0,10.8,85.0,12.2,'11111222,11111222,11111222' 
LOOP,urn:ioos:station:wmo:lopl1:1,2011-09-01T11:03:00Z,28.8850,-90.0250,10.0,9.6,70.0,11.6,'11111222,11111222,11111222' 
LOOP,urn:ioos:station:wmo:lopl1:1,2011-09-01T11:18:00Z,28.8850,-90.0250,10.0,10.1,80.0,12.7,'11111222,11111222,11111222' 
LOOP,urn:ioos:station:wmo:lopl1:1,2011-09-01T11:33:00Z,28.8850,-90.0250,10.0,10.2,81.0,12.4,'11111222,11111222,11111222' 
LOOP,urn:ioos:station:wmo:lopl1:1,2011-09-01T11:48:00Z,28.8850,-90.0250,10.0,10.2,68.0,12.0,'11111222,11111222,11111222' 
LOOP,urn:ioos:station:wmo:lopl1:1,2011-09-01T12:03:00Z,28.8850,-90.0250,10.0,9.5,71.0,11.4,'11111222,11111222,11111222' 
LOOP,urn:ioos:station:wmo:lopl1:1,2011-09-01T12:18:00Z,28.8850,-90.0250,10.0,9.0,79.0,10.6,'11111222,11111222,11111222' 
LOOP,urn:ioos:station:wmo:lopl1:1,2011-09-01T12:33:00Z,28.8850,-90.0250,10.0,7.8,83.0,9.2,'11111222,11111222,11111222' 
LOOP,urn:ioos:station:wmo:lopl1:1,2011-09-01T12:48:00Z,28.8850,-90.0250,10.0,9.3,85.0,11.7,'11111222,11111222,11111222' 
LOOP,urn:ioos:station:wmo:lopl1:1,2011-09-01T13:03:00Z,28.8850,-90.0250,10.0,9.1,94.0,11.1,'11111222,11111222,11111222' 
LOOP,urn:ioos:station:wmo:lopl1:1,2011-09-01T13:18:00Z,28.8850,-90.0250,10.0,9.8,92.0,11.2,'11111222,11111222,11111222' 
LOOP,urn:ioos:station:wmo:lopl1:1,2011-09-01T13:33:00Z,28.8850,-90.0250,10.0,9.8,93.0,11.4,'11111222,11111222,11111222' 
LOOP,urn:ioos:station:wmo:lopl1:1,2011-09-01T13:48:00Z,28.8850,-90.0250,10.0,9.2,126.0,10.5,'11111222,11111222,11111222' 
LOOP,urn:ioos:station:wmo:lopl1:1,2011-09-01T14:03:00Z,28.8850,-90.0250,10.0,10.4,140.0,11.9,'11111222,11111222,11111222' 
LOOP,urn:ioos:station:wmo:lopl1:1,2011-09-01T14:18:00Z,28.8850,-90.0250,10.0,9.1,116.0,10.1,'11111222,11111222,11111222' 
LOOP,urn:ioos:station:wmo:lopl1:1,2011-09-01T14:33:00Z,28.8850,-90.0250,10.0,11.9,137.0,14.2,'11111222,11111222,11111222' 
LOOP,urn:ioos:station:wmo:lopl1:1,2011-09-01T14:48:00Z,28.8850,-90.0250,10.0,14.2,114.0,16.4,'11111222,11111222,11111222' 
LOOP,urn:ioos:station:wmo:lopl1:1,2011-09-01T15:03:00Z,28.8850,-90.0250,10.0,10.3,128.0,11.7,'11111222,11111222,11111222' 
LOOP,urn:ioos:station:wmo:lopl1:1,2011-09-01T15:18:00Z,28.8850,-90.0250,10.0,10.0,134.0,11.7,'11111222,11111222,11111222' 
LOOP,urn:ioos:station:wmo:lopl1:1,2011-09-01T15:33:00Z,28.8850,-90.0250,10.0,7.9,121.0,8.8,'11111222,11111222,11111222' 
LOOP,urn:ioos:station:wmo:lopl1:1,2011-09-01T15:48:00Z,28.8850,-90.0250,10.0,13.2,116.0,16.8,'11111222,11111222,11111222' 
LOOP,urn:ioos:station:wmo:lopl1:1,2011-09-01T16:03:00Z,28.8850,-90.0250,10.0,11.0,107.0,11.8,'11111222,11111222,11111222' 
LOOP,urn:ioos:station:wmo:lopl1:1,2011-09-01T16:23:00Z,28.8850,-90.0250,10.0,8.4,137.0,9.4,'11111222,11111222,11111222' 
LOOP,urn:ioos:station:wmo:lopl1:1,2011-09-01T16:38:00Z,28.8850,-90.0250,10.0,11.4,139.0,13.4,'11111222,11111222,11111222' 
LOOP,urn:ioos:station:wmo:lopl1:1,2011-09-01T16:53:00Z,28.8850,-90.0250,10.0,14.3,131.0,15.6,'11111222,11111222,11111222' 
LOOP,urn:ioos:station:wmo:lopl1:1,2011-09-01T17:08:00Z,28.8850,-90.0250,10.0,17.3,126.0,19.6,'11111222,11111222,11111222' 
LOOP,urn:ioos:station:wmo:lopl1:1,2011-09-01T17:23:00Z,28.8850,-90.0250,10.0,17.9,142.0,20.0,'11111222,11111222,11111222' 
LOOP,urn:ioos:station:wmo:lopl1:1,2011-09-01T17:38:00Z,28.8850,-90.0250,10.0,13.4,136.0,15.3,'11111222,11111222,11111222' 
LOOP,urn:ioos:station:wmo:lopl1:1,2011-09-01T17:53:00Z,28.8850,-90.0250,10.0,12.4,137.0,14.3,'11111222,11111222,11111222' 
LOOP,urn:ioos:station:wmo:lopl1:1,2011-09-01T18:08:00Z,28.8850,-90.0250,10.0,12.0,119.0,13.8,'11111222,11111222,11111222' 
LOOP,urn:ioos:station:wmo:lopl1:1,2011-09-01T18:23:00Z,28.8850,-90.0250,10.0,11.7,115.0,13.5,'11111222,11111222,11111222' 
LOOP,urn:ioos:station:wmo:lopl1:1,2011-09-01T18:38:00Z,28.8850,-90.0250,10.0,12.7,116.0,14.0,'11111222,11111222,11111222' 
LOOP,urn:ioos:station:wmo:lopl1:1,2011-09-01T18:53:00Z,28.8850,-90.0250,10.0,14.3,123.0,16.5,'11111222,11111222,11111222' 
LOOP,urn:ioos:station:wmo:lopl1:1,2011-09-01T19:08:00Z,28.8850,-90.0250,10.0,13.1,114.0,14.8,'11111222,11111222,11111222' 
LOOP,urn:ioos:station:wmo:lopl1:1,2011-09-01T19:23:00Z,28.8850,-90.0250,10.0,11.9,109.0,13.7,'11111222,11111222,11111222' 
LOOP,urn:ioos:station:wmo:lopl1:1,2011-09-01T19:38:00Z,28.8850,-90.0250,10.0,11.9,112.0,13.8,'11111222,11111222,11111222' 
LOOP,urn:ioos:station:wmo:lopl1:1,2011-09-01T19:53:00Z,28.8850,-90.0250,10.0,12.2,110.0,13.9,'11111222,11111222,11111222' 
LOOP,urn:ioos:station:wmo:lopl1:1,2011-09-01T20:08:00Z,28.8850,-90.0250,10.0,12.5,100.0,14.0,'11111222,11111222,11111222' 
LOOP,urn:ioos:station:wmo:lopl1:1,2011-09-01T20:23:00Z,28.8850,-90.0250,10.0,12.8,82.0,14.7,'11111222,11111222,11111222' 
LOOP,urn:ioos:station:wmo:lopl1:1,2011-09-01T20:38:00Z,28.8850,-90.0250,10.0,10.5,85.0,11.6,'11111222,11111222,11111222' 
LOOP,urn:ioos:station:wmo:lopl1:1,2011-09-01T20:53:00Z,28.8850,-90.0250,10.0,9.6,84.0,11.4,'11111222,11111222,11111222' 
LOOP,urn:ioos:station:wmo:lopl1:1,2011-09-01T21:08:00Z,28.8850,-90.0250,10.0,10.0,107.0,11.9,'11111222,11111222,11111222' 
LOOP,urn:ioos:station:wmo:lopl1:1,2011-09-01T21:23:00Z,28.8850,-90.0250,10.0,12.6,89.0,14.4,'11111222,11111222,11111222' 
LOOP,urn:ioos:station:wmo:lopl1:1,2011-09-01T21:38:00Z,28.8850,-90.0250,10.0,11.9,99.0,13.0,'11111222,11111222,11111222' 
LOOP,urn:ioos:station:wmo:lopl1:1,2011-09-01T21:53:00Z,28.8850,-90.0250,10.0,11.4,88.0,12.6,'11111222,11111222,11111222' 
LOOP,urn:ioos:station:wmo:lopl1:1,2011-09-01T22:08:00Z,28.8850,-90.0250,10.0,11.5,84.0,12.9,'11111222,11111222,11111222' 
LOOP,urn:ioos:station:wmo:lopl1:1,2011-09-01T22:23:00Z,28.8850,-90.0250,10.0,12.5,89.0,14.2,'11111222,11111222,11111222' 
LOOP,urn:ioos:station:wmo:lopl1:1,2011-09-01T22:38:00Z,28.8850,-90.0250,10.0,13.6,93.0,15.6,'11111222,11111222,11111222' 
LOOP,urn:ioos:station:wmo:lopl1:1,2011-09-01T22:53:00Z,28.8850,-90.0250,10.0,12.9,94.0,14.7,'11111222,11111222,11111222' 
LOOP,urn:ioos:station:wmo:lopl1:1,2011-09-01T23:08:00Z,28.8850,-90.0250,10.0,13.9,87.0,15.3,'11111222,11111222,11111222' 
LOOP,urn:ioos:station:wmo:lopl1:1,2011-09-01T23:23:00Z,28.8850,-90.0250,10.0,12.4,85.0,14.1,'11111222,11111222,11111222' 
LOOP,urn:ioos:station:wmo:lopl1:1,2011-09-01T23:38:00Z,28.8850,-90.0250,10.0,13.0,82.0,15.2,'11111222,11111222,11111222' 
LOOP,urn:ioos:station:wmo:lopl1:1,2011-09-01T23:53:00Z,28.8850,-90.0250,10.0,14.2,82.0,16.4,'11111222,11111222,11111222' 
LOOP,urn:ioos:station:wmo:lopl1:1,2011-09-02T00:08:00Z,28.8850,-90.0250,10.0,13.4,96.0,18.0,'11111222,11111222,11111222' 
LOOP,urn:ioos:station:wmo:lopl1:1,2011-09-02T00:23:00Z,28.8850,-90.0250,10.0,14.5,95.0,16.4,'11111222,11111222,11111222' 
LOOP,urn:ioos:station:wmo:lopl1:1,2011-09-02T00:38:00Z,28.8850,-90.0250,10.0,15.1,95.0,16.9,'11111222,11111222,11111222' 
LOOP,urn:ioos:station:wmo:lopl1:1,2011-09-02T00:53:00Z,28.8850,-90.0250,10.0,17.3,98.0,19.0,'11111222,11111222,11111222' 
LOOP,urn:ioos:station:wmo:lopl1:1,2011-09-02T01:08:00Z,28.8850,-90.0250,10.0,16.4,93.0,20.0,'11111222,11111222,11111222' 
LOOP,urn:ioos:station:wmo:lopl1:1,2011-09-02T01:23:00Z,28.8850,-90.0250,10.0,18.1,96.0,20.2,'11111222,11111222,11111222' 
LOOP,urn:ioos:station:wmo:lopl1:1,2011-09-02T01:38:00Z,28.8850,-90.0250,10.0,17.2,100.0,19.1,'11111222,11111222,11111222' 
LOOP,urn:ioos:station:wmo:lopl1:1,2011-09-02T01:53:00Z,28.8850,-90.0250,10.0,17.7,110.0,19.7,'11111222,11111222,11111222' 
LOOP,urn:ioos:station:wmo:lopl1:1,2011-09-02T02:08:00Z,28.8850,-90.0250,10.0,17.0,105.0,18.4,'11111222,11111222,11111222' 
LOOP,urn:ioos:station:wmo:lopl1:1,2011-09-02T02:23:00Z,28.8850,-90.0250,10.0,16.7,103.0,19.5,'11111222,11111222,11111222' 
LOOP,urn:ioos:station:wmo:lopl1:1,2011-09-02T02:38:00Z,28.8850,-90.0250,10.0,17.5,103.0,19.9,'11111222,11111222,11111222' 
LOOP,urn:ioos:station:wmo:lopl1:1,2011-09-02T02:53:00Z,28.8850,-90.0250,10.0,18.2,96.0,21.3,'11111222,11111222,11111222' 
LOOP,urn:ioos:station:wmo:lopl1:1,2011-09-02T03:08:00Z,28.8850,-90.0250,10.0,19.4,113.0,21.8,'11111222,11111222,11111222' 
LOOP,urn:ioos:station:wmo:lopl1:1,2011-09-02T03:23:00Z,28.8850,-90.0250,10.0,15.8,122.0,17.1,'11111222,11111222,11111222' 
LOOP,urn:ioos:station:wmo:lopl1:1,2011-09-02T03:43:00Z,28.8850,-90.0250,10.0,13.4,121.0,15.4,'11111222,11111222,11111222' 
LOOP,urn:ioos:station:wmo:lopl1:1,2011-09-02T03:58:00Z,28.8850,-90.0250,10.0,13.1,119.0,14.6,'11111222,11111222,11111222' 
LOOP,urn:ioos:station:wmo:lopl1:1,2011-09-02T04:13:00Z,28.8850,-90.0250,10.0,14.5,111.0,15.6,'11111222,11111222,11111222' 
LOOP,urn:ioos:station:wmo:lopl1:1,2011-09-02T04:28:00Z,28.8850,-90.0250,10.0,15.3,118.0,16.9,'11111222,11111222,11111222' 
LOOP,urn:ioos:station:wmo:lopl1:1,2011-09-02T04:43:00Z,28.8850,-90.0250,10.0,14.8,134.0,16.8,'11111222,11111222,11111222' 
LOOP,urn:ioos:station:wmo:lopl1:1,2011-09-02T04:58:00Z,28.8850,-90.0250,10.0,14.3,127.0,16.0,'11111222,11111222,11111222' 
LOOP,urn:ioos:station:wmo:lopl1:1,2011-09-02T05:13:00Z,28.8850,-90.0250,10.0,13.5,137.0,15.9,'11111222,11111222,11111222' 
LOOP,urn:ioos:station:wmo:lopl1:1,2011-09-02T05:28:00Z,28.8850,-90.0250,10.0,14.0,122.0,16.2,'11111222,11111222,11111222' 
LOOP,urn:ioos:station:wmo:lopl1:1,2011-09-02T05:43:00Z,28.8850,-90.0250,10.0,13.1,118.0,14.6,'11111222,11111222,11111222' 
LOOP,urn:ioos:station:wmo:lopl1:1,2011-09-02T05:58:00Z,28.8850,-90.0250,10.0,12.7,116.0,14.5,'11111222,11111222,11111222' 
LOOP,urn:ioos:station:wmo:lopl1:1,2011-09-02T06:13:00Z,28.8850,-90.0250,10.0,13.2,124.0,15.3,'11111222,11111222,11111222' 
LOOP,urn:ioos:station:wmo:lopl1:1,2011-09-02T06:28:00Z,28.8850,-90.0250,10.0,13.3,122.0,14.9,'11111222,11111222,11111222' 
LOOP,urn:ioos:station:wmo:lopl1:1,2011-09-02T06:43:00Z,28.8850,-90.0250,10.0,13.5,120.0,15.1,'11111222,11111222,11111222' 
LOOP,urn:ioos:station:wmo:lopl1:1,2011-09-02T06:58:00Z,28.8850,-90.0250,10.0,13.5,126.0,15.3,'11111222,11111222,11111222' 
LOOP,urn:ioos:station:wmo:lopl1:1,2011-09-02T07:13:00Z,28.8850,-90.0250,10.0,13.5,128.0,15.6,'11111222,11111222,11111222' 
LOOP,urn:ioos:station:wmo:lopl1:1,2011-09-02T07:28:00Z,28.8850,-90.0250,10.0,12.6,126.0,14.3,'11111222,11111222,11111222' 
LOOP,urn:ioos:station:wmo:lopl1:1,2011-09-02T07:43:00Z,28.8850,-90.0250,10.0,13.1,124.0,15.1,'11111222,11111222,11111222' 
LOOP,urn:ioos:station:wmo:lopl1:1,2011-09-02T07:58:00Z,28.8850,-90.0250,10.0,13.5,137.0,16.0,'11111222,11111222,11111222' 
LOOP,urn:ioos:station:wmo:lopl1:1,2011-09-02T08:13:00Z,28.8850,-90.0250,10.0,14.6,136.0,16.7,'11111222,11111222,11111222' 
LOOP,urn:ioos:station:wmo:lopl1:1,2011-09-02T08:28:00Z,28.8850,-90.0250,10.0,14.1,128.0,16.4,'11111222,11111222,11111222' 
LOOP,urn:ioos:station:wmo:lopl1:1,2011-09-02T08:43:00Z,28.8850,-90.0250,10.0,14.6,130.0,16.0,'11111222,11111222,11111222' 
LOOP,urn:ioos:station:wmo:lopl1:1,2011-09-02T08:58:00Z,28.8850,-90.0250,10.0,15.2,125.0,17.3,'11111222,11111222,11111222' 
LOOP,urn:ioos:station:wmo:lopl1:1,2011-09-02T09:13:00Z,28.8850,-90.0250,10.0,14.2,120.0,16.3,'11111222,11111222,11111222' 
LOOP,urn:ioos:station:wmo:lopl1:1,2011-09-02T09:28:00Z,28.8850,-90.0250,10.0,15.2,124.0,16.8,'11111222,11111222,11111222' 
LOOP,urn:ioos:station:wmo:lopl1:1,2011-09-02T09:43:00Z,28.8850,-90.0250,10.0,14.4,122.0,16.0,'11111222,11111222,11111222' 
LOOP,urn:ioos:station:wmo:lopl1:1,2011-09-02T09:58:00Z,28.8850,-90.0250,10.0,13.9,126.0,15.2,'11111222,11111222,11111222' 
LOOP,urn:ioos:station:wmo:lopl1:1,2011-09-02T10:13:00Z,28.8850,-90.0250,10.0,12.9,124.0,14.2,'11111222,11111222,11111222' 
LOOP,urn:ioos:station:wmo:lopl1:1,2011-09-02T10:28:00Z,28.8850,-90.0250,10.0,14.0,111.0,16.0,'11111222,11111222,11111222' 
LOOP,urn:ioos:station:wmo:lopl1:1,2011-09-02T10:43:00Z,28.8850,-90.0250,10.0,13.4,111.0,14.8,'11111222,11111222,11111222' 
LOOP,urn:ioos:station:wmo:lopl1:1,2011-09-02T10:58:00Z,28.8850,-90.0250,10.0,12.9,116.0,14.3,'11111222,11111222,11111222' 
LOOP,urn:ioos:station:wmo:lopl1:1,2011-09-02T11:13:00Z,28.8850,-90.0250,10.0,14.1,118.0,16.2,'11111222,11111222,11111222' 
LOOP,urn:ioos:station:wmo:lopl1:1,2011-09-02T11:28:00Z,28.8850,-90.0250,10.0,13.8,130.0,15.5,'11111222,11111222,11111222' 
LOOP,urn:ioos:station:wmo:lopl1:1,2011-09-02T11:43:00Z,28.8850,-90.0250,10.0,13.5,116.0,15.4,'11111222,11111222,11111222' 
LOOP,urn:ioos:station:wmo:lopl1:1,2011-09-02T12:03:00Z,28.8850,-90.0250,10.0,14.2,114.0,16.0,'11111222,11111222,11111222' 
LOOP,urn:ioos:station:wmo:lopl1:1,2011-09-02T12:18:00Z,28.8850,-90.0250,10.0,13.9,114.0,15.4,'11111222,11111222,11111222' 
LOOP,urn:ioos:station:wmo:lopl1:1,2011-09-02T12:33:00Z,28.8850,-90.0250,10.0,13.5,114.0,15.9,'11111222,11111222,11111222' 
LOOP,urn:ioos:station:wmo:lopl1:1,2011-09-02T12:48:00Z,28.8850,-90.0250,10.0,12.5,134.0,15.9,'11111222,11111222,11111222' 
LOOP,urn:ioos:station:wmo:lopl1:1,2011-09-02T13:03:00Z,28.8850,-90.0250,10.0,15.5,139.0,16.7,'11111222,11111222,11111222' 
LOOP,urn:ioos:station:wmo:lopl1:1,2011-09-02T13:18:00Z,28.8850,-90.0250,10.0,16.3,130.0,18.5,'11111222,11111222,11111222' 
LOOP,urn:ioos:station:wmo:lopl1:1,2011-09-02T13:33:00Z,28.8850,-90.0250,10.0,14.6,120.0,16.3,'11111222,11111222,11111222' 
LOOP,urn:ioos:station:wmo:lopl1:1,2011-09-02T13:48:00Z,28.8850,-90.0250,10.0,16.3,141.0,19.3,'11111222,11111222,11111222' 
LOOP,urn:ioos:station:wmo:lopl1:1,2011-09-02T14:03:00Z,28.8850,-90.0250,10.0,14.0,160.0,16.3,'11111222,11111222,11111222' 
LOOP,urn:ioos:station:wmo:lopl1:1,2011-09-02T14:18:00Z,28.8850,-90.0250,10.0,18.2,108.0,20.9,'11111222,11111222,11111222' 
LOOP,urn:ioos:station:wmo:lopl1:1,2011-09-02T14:33:00Z,28.8850,-90.0250,10.0,15.2,109.0,18.0,'11111222,11111222,11111222' 
LOOP,urn:ioos:station:wmo:lopl1:1,2011-09-02T14:48:00Z,28.8850,-90.0250,10.0,18.1,124.0,20.9,'11111222,11111222,11111222' 
LOOP,urn:ioos:station:wmo:lopl1:1,2011-09-02T15:03:00Z,28.8850,-90.0250,10.0,18.7,121.0,21.2,'11111222,11111222,11111222' 
LOOP,urn:ioos:station:wmo:lopl1:1,2011-09-02T15:18:00Z,28.8850,-90.0250,10.0,19.4,132.0,23.3,'11111222,11111222,11111222' 
LOOP,urn:ioos:station:wmo:lopl1:1,2011-09-02T15:33:00Z,28.8850,-90.0250,10.0,16.5,132.0,19.8,'11111222,11111222,11111222' 
LOOP,urn:ioos:station:wmo:lopl1:1,2011-09-02T15:48:00Z,28.8850,-90.0250,10.0,16.6,126.0,18.0,'11111222,11111222,11111222' 
LOOP,urn:ioos:station:wmo:lopl1:1,2011-09-02T16:03:00Z,28.8850,-90.0250,10.0,14.6,128.0,17.3,'11111222,11111222,11111222' 
LOOP,urn:ioos:station:wmo:lopl1:1,2011-09-02T16:18:00Z,28.8850,-90.0250,10.0,15.4,124.0,17.7,'11111222,11111222,11111222' 
LOOP,urn:ioos:station:wmo:lopl1:1,2011-09-02T16:33:00Z,28.8850,-90.0250,10.0,14.5,119.0,16.7,'11111222,11111222,11111222' 
LOOP,urn:ioos:station:wmo:lopl1:1,2011-09-02T16:48:00Z,28.8850,-90.0250,10.0,13.7,117.0,15.8,'11111222,11111222,11111222' 
LOOP,urn:ioos:station:wmo:lopl1:1,2011-09-02T17:03:00Z,28.8850,-90.0250,10.0,14.9,119.0,16.5,'11111222,11111222,11111222' 
LOOP,urn:ioos:station:wmo:lopl1:1,2011-09-02T17:18:00Z,28.8850,-90.0250,10.0,13.3,117.0,15.4,'11111222,11111222,11111222' 
LOOP,urn:ioos:station:wmo:lopl1:1,2011-09-02T17:33:00Z,28.8850,-90.0250,10.0,13.7,113.0,15.2,'11111222,11111222,11111222' 
LOOP,urn:ioos:station:wmo:lopl1:1,2011-09-02T17:48:00Z,28.8850,-90.0250,10.0,11.6,100.0,13.5,'11111222,11111222,11111222' 
LOOP,urn:ioos:station:wmo:lopl1:1,2011-09-02T18:03:00Z,28.8850,-90.0250,10.0,15.5,88.0,19.2,'11111222,11111222,11111222' 
LOOP,urn:ioos:station:wmo:lopl1:1,2011-09-02T18:18:00Z,28.8850,-90.0250,10.0,13.4,116.0,18.3,'11111222,11111222,11111222' 
LOOP,urn:ioos:station:wmo:lopl1:1,2011-09-02T18:33:00Z,28.8850,-90.0250,10.0,16.0,106.0,18.7,'11111222,11111222,11111222' 
LOOP,urn:ioos:station:wmo:lopl1:1,2011-09-02T18:48:00Z,28.8850,-90.0250,10.0,14.1,104.0,18.2,'11111222,11111222,11111222' 
LOOP,urn:ioos:station:wmo:lopl1:1,2011-09-02T19:03:00Z,28.8850,-90.0250,10.0,17.7,110.0,19.9,'11111222,11111222,11111222' 
LOOP,urn:ioos:station:wmo:lopl1:1,2011-09-02T19:18:00Z,28.8850,-90.0250,10.0,17.3,114.0,19.4,'11111222,11111222,11111222' 
LOOP,urn:ioos:station:wmo:lopl1:1,2011-09-02T19:33:00Z,28.8850,-90.0250,10.0,16.7,105.0,19.2,'11111222,11111222,11111222' 
LOOP,urn:ioos:station:wmo:lopl1:1,2011-09-02T19:48:00Z,28.8850,-90.0250,10.0,16.4,127.0,18.9,'11111222,11111222,11111222' 
LOOP,urn:ioos:station:wmo:lopl1:1,2011-09-02T20:03:00Z,28.8850,-90.0250,10.0,14.7,114.0,17.0,'11111222,11111222,11111222' 
LOOP,urn:ioos:station:wmo:lopl1:1,2011-09-02T20:18:00Z,28.8850,-90.0250,10.0,14.6,106.0,16.7,'11111222,11111222,11111222' 
LOOP,urn:ioos:station:wmo:lopl1:1,2011-09-02T20:33:00Z,28.8850,-90.0250,10.0,18.2,111.0,21.2,'11111222,11111222,11111222' 
LOOP,urn:ioos:station:wmo:lopl1:1,2011-09-02T20:48:00Z,28.8850,-90.0250,10.0,14.7,81.0,17.2,'11111222,11111222,11111222' 
LOOP,urn:ioos:station:wmo:lopl1:1,2011-09-02T21:03:00Z,28.8850,-90.0250,10.0,15.0,105.0,17.4,'11111222,11111222,11111222' 
LOOP,urn:ioos:station:wmo:lopl1:1,2011-09-02T21:18:00Z,28.8850,-90.0250,10.0,14.1,97.0,16.6,'11111222,11111222,11111222' 
LOOP,urn:ioos:station:wmo:lopl1:1,2011-09-02T21:33:00Z,28.8850,-90.0250,10.0,15.9,90.0,19.9,'11111222,11111222,11111222' 
LOOP,urn:ioos:station:wmo:lopl1:1,2011-09-02T21:48:00Z,28.8850,-90.0250,10.0,12.0,75.0,13.7,'11111222,11111222,11111222' 
LOOP,urn:ioos:station:wmo:lopl1:1,2011-09-02T22:03:00Z,28.8850,-90.0250,10.0,13.2,94.0,15.1,'11111222,11111222,11111222' 
LOOP,urn:ioos:station:wmo:lopl1:1,2011-09-02T22:18:00Z,28.8850,-90.0250,10.0,13.9,119.0,15.5,'11111222,11111222,11111222' 
LOOP,urn:ioos:station:wmo:lopl1:1,2011-09-02T22:33:00Z,28.8850,-90.0250,10.0,16.1,116.0,19.3,'11111222,11111222,11111222' 
LOOP,urn:ioos:station:wmo:lopl1:1,2011-09-02T22:48:00Z,28.8850,-90.0250,10.0,15.0,147.0,17.7,'11111222,11111222,11111222' 
LOOP,urn:ioos:station:wmo:lopl1:1,2011-09-02T23:03:00Z,28.8850,-90.0250,10.0,9.3,133.0,12.1,'11111222,11111222,11111222' 
LOOP,urn:ioos:station:wmo:lopl1:1,2011-09-02T23:18:00Z,28.8850,-90.0250,10.0,11.2,113.0,12.1,'11111222,11111222,11111222' 
LOOP,urn:ioos:station:wmo:lopl1:1,2011-09-02T23:33:00Z,28.8850,-90.0250,10.0,14.5,123.0,16.0,'11111222,11111222,11111222' 
LOOP,urn:ioos:station:wmo:lopl1:1,2011-09-02T23:48:00Z,28.8850,-90.0250,10.0,15.6,118.0,18.1,'11111222,11111222,11111222' 
LOOP,urn:ioos:station:wmo:lopl1:1,2011-09-03T00:03:00Z,28.8850,-90.0250,10.0,18.5,118.0,20.6,'11111222,11111222,11111222' 
LOOP,urn:ioos:station:wmo:lopl1:1,2011-09-03T00:23:00Z,28.8850,-90.0250,10.0,17.3,119.0,20.2,'11111222,11111222,11111222' 
LOOP,urn:ioos:station:wmo:lopl1:1,2011-09-03T00:38:00Z,28.8850,-90.0250,10.0,16.2,114.0,19.2,'11111222,11111222,11111222' 
LOOP,urn:ioos:station:wmo:lopl1:1,2011-09-03T00:53:00Z,28.8850,-90.0250,10.0,16.9,101.0,18.6,'11111222,11111222,11111222' 
LOOP,urn:ioos:station:wmo:lopl1:1,2011-09-03T01:08:00Z,28.8850,-90.0250,10.0,16.7,97.0,19.3,'11111222,11111222,11111222' 
LOOP,urn:ioos:station:wmo:lopl1:1,2011-09-03T01:23:00Z,28.8850,-90.0250,10.0,16.5,93.0,18.4,'11111222,11111222,11111222' 